LPE0021 SKPS-MPSM

Flight info

Callsign LPE0021
Flight time 1h 25m
Altitude 36000
Route MER DCT ANKAS DCT ISOPA DCT CLO UW90 BUSMO UN420 IRATA
Aircraft A320/M-SDE3FGHIRWY/LB1

Departure

Time 2026-04-21 06:10
Airport Antonio Nariño Airport (SKPS)

Arrival

Time 2026-04-21 07:35
Airport Scarlett Martinez International Airport (MPSM)
Time Latitude Longitude Altitude Speed Heading
2026-04-21 05:48 1.39607 -77.28975 5912 ft 0 kts 105°
2026-04-21 06:04 1.39607 -77.28974 5911 ft 0 kts 105°
2026-04-21 06:04 1.39611 -77.28970 5910 ft 1 kts 347°
2026-04-21 06:04 1.39615 -77.28975 5911 ft 7 kts 300°
2026-04-21 06:05 1.39596 -77.29022 5919 ft 6 kts 204°
2026-04-21 06:05 1.39569 -77.29030 5919 ft 0 kts 194°
2026-04-21 06:06 1.39570 -77.29030 5919 ft 0 kts 194°
2026-04-21 06:06 1.39550 -77.29034 5920 ft 11 kts 194°
2026-04-21 06:07 1.39513 -77.29081 5923 ft 8 kts 277°
2026-04-21 06:07 1.39505 -77.29132 5924 ft 6 kts 217°
2026-04-21 06:07 1.39469 -77.29150 5925 ft 4 kts 201°
2026-04-21 06:07 1.39451 -77.29157 5927 ft 5 kts 199°
2026-04-21 06:08 1.39238 -77.29211 5937 ft 50 kts 194°
2026-04-21 06:08 1.38917 -77.29294 5950 ft 45 kts 195°
2026-04-21 06:08 1.38698 -77.29335 5957 ft 9 kts 159°
2026-04-21 06:08 1.38696 -77.29349 5957 ft 6 kts 340°
2026-04-21 06:09 1.38725 -77.29346 5957 ft 0 kts 19°
2026-04-21 06:09 1.38786 -77.29328 5955 ft 40 kts 15°
2026-04-21 06:09 1.39327 -77.29185 5934 ft 118 kts 15°
2026-04-21 06:10 1.40357 -77.28911 5957 ft 174 kts 14°
2026-04-21 06:10 1.41554 -77.28700 6590 ft 177 kts
2026-04-21 06:10 1.42781 -77.28635 7366 ft 179 kts
2026-04-21 06:10 1.44026 -77.28555 8080 ft 185 kts
2026-04-21 06:11 1.45360 -77.28460 8640 ft 201 kts
2026-04-21 06:11 1.46806 -77.28355 9194 ft 217 kts
2026-04-21 06:11 1.48393 -77.28237 9686 ft 239 kts
2026-04-21 06:11 1.50133 -77.28109 10206 ft 260 kts
2026-04-21 06:12 1.51999 -77.27969 10770 ft 276 kts
2026-04-21 06:12 1.53962 -77.27822 11096 ft 291 kts
2026-04-21 06:12 1.56041 -77.27663 11404 ft 306 kts
2026-04-21 06:12 1.58165 -77.27243 11923 ft 312 kts 18°
2026-04-21 06:13 1.60148 -77.26364 12531 ft 315 kts 28°
2026-04-21 06:13 1.62047 -77.25255 13122 ft 319 kts 30°
2026-04-21 06:13 1.63975 -77.24084 13614 ft 325 kts 30°
2026-04-21 06:13 1.65951 -77.22886 14027 ft 334 kts 30°
2026-04-21 06:14 1.67943 -77.21685 14548 ft 337 kts 30°
2026-04-21 06:14 1.69980 -77.20462 15088 ft 341 kts 30°
2026-04-21 06:14 1.72015 -77.19243 15582 ft 344 kts 30°
2026-04-21 06:14 1.74088 -77.18005 16079 ft 347 kts 30°
2026-04-21 06:15 1.76170 -77.16761 16556 ft 350 kts 31°
2026-04-21 06:15 1.78291 -77.15515 17044 ft 353 kts 28°
2026-04-21 06:15 1.80503 -77.14386 17505 ft 356 kts 25°
2026-04-21 06:15 1.82752 -77.13338 17942 ft 360 kts 25°
2026-04-21 06:16 1.85042 -77.12283 18397 ft 362 kts 24°
2026-04-21 06:16 1.87349 -77.11220 18839 ft 365 kts 24°
2026-04-21 06:16 1.89651 -77.10158 19222 ft 368 kts 24°
2026-04-21 06:16 1.91997 -77.09075 19613 ft 371 kts 24°
2026-04-21 06:17 1.94378 -77.07975 20012 ft 374 kts 24°
2026-04-21 06:17 1.96763 -77.06873 20417 ft 376 kts 24°
2026-04-21 06:17 1.99171 -77.05759 20787 ft 380 kts 24°
2026-04-21 06:17 2.01586 -77.04642 21136 ft 383 kts 24°
2026-04-21 06:18 2.04039 -77.03509 21510 ft 385 kts 24°
2026-04-21 06:18 2.06484 -77.02377 21867 ft 388 kts 24°
2026-04-21 06:18 2.08944 -77.01239 22217 ft 390 kts 24°
2026-04-21 06:18 2.11430 -77.00088 22581 ft 392 kts 24°
2026-04-21 06:19 2.13898 -76.98946 22967 ft 394 kts 24°
2026-04-21 06:19 2.16415 -76.97783 23376 ft 395 kts 24°
2026-04-21 06:19 2.18923 -76.96622 23771 ft 396 kts 24°
2026-04-21 06:19 2.21408 -76.95473 24142 ft 397 kts 24°
2026-04-21 06:20 2.23924 -76.94308 24505 ft 399 kts 24°
2026-04-21 06:20 2.26474 -76.93128 24893 ft 400 kts 24°
2026-04-21 06:20 2.29014 -76.91952 25270 ft 401 kts 24°
2026-04-21 06:20 2.31535 -76.90783 25632 ft 403 kts 25°
2026-04-21 06:21 2.34100 -76.89594 26014 ft 404 kts 25°
2026-04-21 06:21 2.36639 -76.88418 26408 ft 404 kts 25°
2026-04-21 06:21 2.39232 -76.87215 26816 ft 404 kts 25°
2026-04-21 06:21 2.41765 -76.86042 27197 ft 404 kts 25°
2026-04-21 06:22 2.44332 -76.84853 27545 ft 406 kts 25°
2026-04-21 06:22 2.46935 -76.83652 27745 ft 411 kts 25°
2026-04-21 06:22 2.49538 -76.82454 28002 ft 414 kts 25°
2026-04-21 06:22 2.52188 -76.81234 28319 ft 416 kts 25°
2026-04-21 06:23 2.54814 -76.80022 28636 ft 417 kts 25°
2026-04-21 06:23 2.57451 -76.78807 28960 ft 418 kts 25°
2026-04-21 06:23 2.60092 -76.77589 29239 ft 420 kts 25°
2026-04-21 06:23 2.62794 -76.76339 29503 ft 423 kts 25°
2026-04-21 06:24 2.65476 -76.75099 29753 ft 426 kts 25°
2026-04-21 06:24 2.68162 -76.73861 30030 ft 428 kts 25°
2026-04-21 06:24 2.70874 -76.72611 30311 ft 429 kts 25°
2026-04-21 06:24 2.73588 -76.71353 30569 ft 431 kts 25°
2026-04-21 06:25 2.76362 -76.70072 30788 ft 435 kts 25°
2026-04-21 06:25 2.79116 -76.68800 31011 ft 437 kts 25°
2026-04-21 06:25 2.81900 -76.67515 31197 ft 441 kts 25°
2026-04-21 06:25 2.84679 -76.66230 31407 ft 444 kts 25°
2026-04-21 06:26 2.87486 -76.64934 31666 ft 445 kts 25°
2026-04-21 06:26 2.90326 -76.63621 31922 ft 446 kts 25°
2026-04-21 06:26 2.93131 -76.62323 32161 ft 447 kts 26°
2026-04-21 06:26 2.95967 -76.61010 32355 ft 450 kts 26°
2026-04-21 06:27 2.98829 -76.59685 32458 ft 454 kts 26°
2026-04-21 06:27 3.01726 -76.58345 32560 ft 458 kts 26°
2026-04-21 06:27 3.04643 -76.56998 32661 ft 462 kts 26°
2026-04-21 06:27 3.07597 -76.55637 32777 ft 465 kts 26°
2026-04-21 06:28 3.10541 -76.54281 32995 ft 465 kts 26°
2026-04-21 06:28 3.13482 -76.52924 33274 ft 465 kts 26°
2026-04-21 06:28 3.16424 -76.51567 33557 ft 464 kts 26°
2026-04-21 06:28 3.19377 -76.50203 33832 ft 463 kts 26°
2026-04-21 06:29 3.22265 -76.48867 34106 ft 462 kts 26°
2026-04-21 06:29 3.25198 -76.47511 34371 ft 461 kts 26°
2026-04-21 06:29 3.28107 -76.46167 34603 ft 461 kts 26°
2026-04-21 06:29 3.31053 -76.44852 34771 ft 462 kts 22°
2026-04-21 06:30 3.34157 -76.43901 34897 ft 465 kts 13°
2026-04-21 06:30 3.37392 -76.43418 35045 ft 467 kts
2026-04-21 06:30 3.40639 -76.43412 35179 ft 469 kts 356°
2026-04-21 06:30 3.43909 -76.43891 35315 ft 471 kts 347°
2026-04-21 06:31 3.47044 -76.44836 35443 ft 472 kts 339°
2026-04-21 06:31 3.50002 -76.46224 35562 ft 473 kts 332°
2026-04-21 06:31 3.52886 -76.47854 35701 ft 474 kts 330°
2026-04-21 06:31 3.55729 -76.49510 35804 ft 475 kts 330°
2026-04-21 06:32 3.58613 -76.51194 35915 ft 475 kts 330°
2026-04-21 06:32 3.61454 -76.52846 36026 ft 476 kts 330°
2026-04-21 06:32 3.64311 -76.54499 36131 ft 476 kts 330°
2026-04-21 06:32 3.67198 -76.56165 36243 ft 477 kts 330°
2026-04-21 06:33 3.70082 -76.57825 36249 ft 477 kts 330°
2026-04-21 06:33 3.75864 -76.61150 36244 ft 478 kts 330°
2026-04-21 06:34 3.81640 -76.64470 36221 ft 479 kts 330°
2026-04-21 06:34 3.87422 -76.67793 36161 ft 479 kts 330°
2026-04-21 06:35 3.93209 -76.71119 36108 ft 479 kts 330°
2026-04-21 06:35 3.99033 -76.74469 36066 ft 479 kts 330°
2026-04-21 06:36 4.04812 -76.77792 35998 ft 479 kts 330°
2026-04-21 06:36 4.10652 -76.81152 35982 ft 479 kts 330°
2026-04-21 06:37 4.16442 -76.84484 35977 ft 480 kts 330°
2026-04-21 06:37 4.22255 -76.87830 35942 ft 481 kts 330°
2026-04-21 06:38 4.28061 -76.91180 35930 ft 481 kts 330°
2026-04-21 06:38 4.33893 -76.94564 35932 ft 481 kts 330°
2026-04-21 06:39 4.39718 -76.97948 35939 ft 481 kts 330°
2026-04-21 06:39 4.45507 -77.01311 35931 ft 481 kts 330°
2026-04-21 06:40 4.51333 -77.04695 35934 ft 481 kts 330°
2026-04-21 06:40 4.57128 -77.08061 35942 ft 482 kts 330°
2026-04-21 06:41 4.62941 -77.11437 35944 ft 482 kts 330°
2026-04-21 06:41 4.68747 -77.14810 35939 ft 481 kts 330°
2026-04-21 06:42 4.74592 -77.18208 35938 ft 481 kts 330°
2026-04-21 06:42 4.80413 -77.21592 35939 ft 482 kts 330°
2026-04-21 06:43 4.86218 -77.24966 35935 ft 482 kts 330°
2026-04-21 06:43 4.92024 -77.28342 35934 ft 482 kts 330°
2026-04-21 06:44 4.97866 -77.31741 35930 ft 482 kts 329°
2026-04-21 06:44 5.03660 -77.35111 35931 ft 482 kts 329°
2026-04-21 06:45 5.09508 -77.38514 35932 ft 482 kts 329°
2026-04-21 06:45 5.15308 -77.41890 35933 ft 482 kts 329°
2026-04-21 06:46 5.21125 -77.45277 35932 ft 481 kts 329°
2026-04-21 06:46 5.26931 -77.48657 35931 ft 481 kts 329°
2026-04-21 06:47 5.32712 -77.52024 35930 ft 481 kts 329°
2026-04-21 06:47 5.38523 -77.55409 35933 ft 481 kts 329°
2026-04-21 06:48 5.44360 -77.58810 35935 ft 482 kts 329°
2026-04-21 06:48 5.50163 -77.62191 35937 ft 481 kts 329°
2026-04-21 06:49 5.55955 -77.65566 35937 ft 481 kts 329°
2026-04-21 06:49 5.61790 -77.68968 35937 ft 481 kts 329°
2026-04-21 06:50 5.67578 -77.72344 35935 ft 481 kts 329°
2026-04-21 06:50 5.73438 -77.75763 35932 ft 481 kts 329°
2026-04-21 06:51 5.79245 -77.79150 35929 ft 481 kts 329°
2026-04-21 06:51 5.85040 -77.82532 35928 ft 481 kts 329°
2026-04-21 06:52 5.90827 -77.85910 35922 ft 480 kts 329°
2026-04-21 06:52 5.96636 -77.89301 35920 ft 479 kts 329°
2026-04-21 06:53 6.02392 -77.92664 35919 ft 480 kts 329°
2026-04-21 06:53 6.08160 -77.96034 35918 ft 481 kts 329°
2026-04-21 06:54 6.13998 -77.99444 35918 ft 480 kts 329°
2026-04-21 06:54 6.19783 -78.02825 35917 ft 480 kts 329°
2026-04-21 06:55 6.25565 -78.06203 35916 ft 480 kts 329°
2026-04-21 06:55 6.31366 -78.09592 35917 ft 479 kts 329°
2026-04-21 06:56 6.37135 -78.12965 35917 ft 479 kts 329°
2026-04-21 06:56 6.42881 -78.16325 35916 ft 479 kts 329°
2026-04-21 06:57 6.48677 -78.19717 35916 ft 479 kts 329°
2026-04-21 06:57 6.54456 -78.23099 35916 ft 479 kts 329°
2026-04-21 06:58 6.60194 -78.26460 35916 ft 479 kts 329°
2026-04-21 06:58 6.65973 -78.29847 35915 ft 478 kts 329°
2026-04-21 06:59 6.71736 -78.33224 35915 ft 478 kts 329°
2026-04-21 06:59 6.77460 -78.36659 35915 ft 478 kts 328°
2026-04-21 07:00 6.83141 -78.40105 35916 ft 479 kts 328°
2026-04-21 07:00 6.88880 -78.43581 35916 ft 479 kts 328°
2026-04-21 07:01 6.94596 -78.47042 35915 ft 479 kts 328°
2026-04-21 07:01 7.03196 -78.52248 35916 ft 477 kts 328°
2026-04-21 07:02 7.08855 -78.55670 35917 ft 477 kts 328°
2026-04-21 07:02 7.14609 -78.59151 35919 ft 477 kts 328°
2026-04-21 07:03 7.20257 -78.62570 35924 ft 468 kts 328°
2026-04-21 07:03 7.23038 -78.64255 35818 ft 463 kts 328°
2026-04-21 07:03 7.25810 -78.65935 35044 ft 465 kts 328°
2026-04-21 07:04 7.28604 -78.67629 33822 ft 473 kts 328°
2026-04-21 07:04 7.31425 -78.69340 32662 ft 479 kts 329°
2026-04-21 07:04 7.34291 -78.71079 31725 ft 481 kts 328°
2026-04-21 07:04 7.37162 -78.72818 30820 ft 482 kts 328°
2026-04-21 07:05 7.40066 -78.74579 29886 ft 484 kts 328°
2026-04-21 07:05 7.42935 -78.76319 28892 ft 486 kts 328°
2026-04-21 07:05 7.45838 -78.78105 27839 ft 488 kts 326°
2026-04-21 07:05 7.48458 -78.80231 26737 ft 491 kts 315°
2026-04-21 07:06 7.50674 -78.82868 25811 ft 489 kts 305°
2026-04-21 07:06 7.52419 -78.85749 25184 ft 481 kts 300°
2026-04-21 07:06 7.54054 -78.88655 24485 ft 476 kts 300°
2026-04-21 07:06 7.55670 -78.91563 23732 ft 472 kts 300°
2026-04-21 07:07 7.57253 -78.94408 23015 ft 468 kts 300°
2026-04-21 07:07 7.58845 -78.97257 22314 ft 463 kts 301°
2026-04-21 07:07 7.60415 -79.00054 21628 ft 460 kts 301°
2026-04-21 07:07 7.61990 -79.02853 20986 ft 455 kts 301°
2026-04-21 07:08 7.63541 -79.05602 20426 ft 449 kts 301°
2026-04-21 07:08 7.65066 -79.08309 19890 ft 442 kts 301°
2026-04-21 07:08 7.66573 -79.10986 19372 ft 436 kts 301°
2026-04-21 07:08 7.68066 -79.13636 18819 ft 431 kts 300°
2026-04-21 07:09 7.69535 -79.16245 18297 ft 426 kts 300°
2026-04-21 07:09 7.70992 -79.18831 17768 ft 421 kts 300°
2026-04-21 07:09 7.72421 -79.21368 17269 ft 416 kts 300°
2026-04-21 07:09 7.73829 -79.23872 16754 ft 412 kts 300°
2026-04-21 07:10 7.75238 -79.26377 16310 ft 405 kts 300°
2026-04-21 07:10 7.76622 -79.28838 15818 ft 400 kts 300°
2026-04-21 07:10 7.77990 -79.31270 15259 ft 398 kts 300°
2026-04-21 07:10 7.79354 -79.33694 14690 ft 396 kts 300°
2026-04-21 07:11 7.80698 -79.36086 14135 ft 393 kts 300°
2026-04-21 07:11 7.82036 -79.38464 13601 ft 390 kts 300°
2026-04-21 07:11 7.83369 -79.40836 13076 ft 385 kts 300°
2026-04-21 07:11 7.84690 -79.43185 12553 ft 381 kts 300°
2026-04-21 07:12 7.85984 -79.45487 12039 ft 377 kts 300°
2026-04-21 07:12 7.87270 -79.47779 11528 ft 373 kts 300°
2026-04-21 07:12 7.88530 -79.50021 11070 ft 366 kts 300°
2026-04-21 07:12 7.89778 -79.52242 10714 ft 358 kts 300°
2026-04-21 07:13 7.90978 -79.54382 10436 ft 347 kts 300°
2026-04-21 07:13 7.92140 -79.56456 10299 ft 333 kts 300°
2026-04-21 07:13 7.93260 -79.58455 10185 ft 319 kts 301°
2026-04-21 07:13 7.94334 -79.60368 10089 ft 305 kts 301°
2026-04-21 07:14 7.95359 -79.62198 9994 ft 293 kts 301°
2026-04-21 07:14 7.96348 -79.63961 9624 ft 292 kts 301°
2026-04-21 07:14 7.97353 -79.65750 9272 ft 290 kts 301°
2026-04-21 07:14 7.98341 -79.67514 8921 ft 289 kts 301°
2026-04-21 07:15 7.99339 -79.69292 8565 ft 287 kts 301°
2026-04-21 07:15 8.00311 -79.71025 8226 ft 286 kts 301°
2026-04-21 07:15 8.01292 -79.72774 7887 ft 283 kts 301°
2026-04-21 07:15 8.02262 -79.74503 7552 ft 282 kts 301°
2026-04-21 07:16 8.03227 -79.76224 7218 ft 280 kts 301°
2026-04-21 07:16 8.04181 -79.77925 6885 ft 278 kts 302°
2026-04-21 07:16 8.05143 -79.79639 6551 ft 276 kts 302°
2026-04-21 07:16 8.06084 -79.81318 6224 ft 274 kts 302°
2026-04-21 07:17 8.07024 -79.82995 5898 ft 272 kts 302°
2026-04-21 07:17 8.07960 -79.84665 5572 ft 270 kts 302°
2026-04-21 07:17 8.08887 -79.86317 5250 ft 268 kts 302°
2026-04-21 07:17 8.09796 -79.87940 4929 ft 267 kts 302°
2026-04-21 07:18 8.10710 -79.89573 4609 ft 265 kts 302°
2026-04-21 07:18 8.11608 -79.91176 4291 ft 263 kts 302°
2026-04-21 07:18 8.12510 -79.92787 3967 ft 262 kts 302°
2026-04-21 07:18 8.13407 -79.94389 3644 ft 261 kts 302°
2026-04-21 07:19 8.14304 -79.95989 3357 ft 257 kts 302°
2026-04-21 07:19 8.15157 -79.97517 3331 ft 243 kts 302°
2026-04-21 07:19 8.15958 -79.98954 3306 ft 230 kts 303°
2026-04-21 07:19 8.16724 -80.00324 3274 ft 219 kts 303°
2026-04-21 07:20 8.17477 -80.01666 3230 ft 219 kts 303°
2026-04-21 07:20 8.18226 -80.03001 3112 ft 218 kts 302°
2026-04-21 07:20 8.18973 -80.04336 2984 ft 217 kts 303°
2026-04-21 07:20 8.19714 -80.05660 2837 ft 216 kts 302°
2026-04-21 07:21 8.20466 -80.07003 2498 ft 220 kts 302°
2026-04-21 07:21 8.21235 -80.08347 2229 ft 218 kts 308°
2026-04-21 07:21 8.22339 -80.09300 2211 ft 208 kts 340°
2026-04-21 07:21 8.23769 -80.09477 2221 ft 207 kts 10°
2026-04-21 07:22 8.25086 -80.08868 2224 ft 211 kts 40°
2026-04-21 07:22 8.25907 -80.07637 2226 ft 218 kts 70°
2026-04-21 07:22 8.25953 -80.06100 2226 ft 226 kts 103°
2026-04-21 07:22 8.25251 -80.04658 2236 ft 229 kts 117°
2026-04-21 07:23 8.24431 -80.03286 2232 ft 229 kts 117°
2026-04-21 07:23 8.23604 -80.01894 2231 ft 229 kts 117°
2026-04-21 07:23 8.22801 -80.00519 2231 ft 229 kts 116°
2026-04-21 07:23 8.21863 -79.99183 2216 ft 233 kts 138°
2026-04-21 07:24 8.20354 -79.98566 2219 ft 237 kts 179°
2026-04-21 07:24 8.18777 -79.98962 2225 ft 234 kts 216°
2026-04-21 07:24 8.17720 -80.00156 2227 ft 227 kts 251°
2026-04-21 07:24 8.17496 -80.01683 2227 ft 219 kts 284°
2026-04-21 07:25 8.18066 -80.03075 2233 ft 213 kts 305°
2026-04-21 07:25 8.18861 -80.04363 2227 ft 214 kts 305°
2026-04-21 07:25 8.19635 -80.05647 2225 ft 213 kts 304°
2026-04-21 07:25 8.20404 -80.06953 2225 ft 214 kts 303°
2026-04-21 07:26 8.21156 -80.08250 2224 ft 214 kts 304°
2026-04-21 07:26 8.22139 -80.09318 2204 ft 208 kts 336°
2026-04-21 07:26 8.23543 -80.09579 2218 ft 206 kts
2026-04-21 07:26 8.24881 -80.09071 2220 ft 209 kts 36°
2026-04-21 07:27 8.25808 -80.07926 2221 ft 215 kts 65°
2026-04-21 07:27 8.26019 -80.06425 2221 ft 223 kts 96°
2026-04-21 07:27 8.25420 -80.04945 2232 ft 229 kts 117°
2026-04-21 07:27 8.24597 -80.03560 2227 ft 229 kts 118°
2026-04-21 07:28 8.23782 -80.02193 2225 ft 229 kts 117°
2026-04-21 07:28 8.22968 -80.00804 2225 ft 229 kts 117°
2026-04-21 07:28 8.22104 -79.99436 2218 ft 232 kts 129°
2026-04-21 07:28 8.20714 -79.98615 2210 ft 236 kts 171°
2026-04-21 07:29 8.19108 -79.98798 2218 ft 235 kts 208°
2026-04-21 07:29 8.17888 -79.99865 2222 ft 229 kts 244°
2026-04-21 07:29 8.17475 -80.01363 2224 ft 220 kts 277°
2026-04-21 07:29 8.17889 -80.02788 2226 ft 210 kts 304°
2026-04-21 07:30 8.18637 -80.04011 2214 ft 196 kts 306°
2026-04-21 07:30 8.19342 -80.05167 2269 ft 187 kts 305°
2026-04-21 07:30 8.19981 -80.06243 2251 ft 171 kts 304°
2026-04-21 07:30 8.20557 -80.07232 2207 ft 155 kts 305°
2026-04-21 07:31 8.21250 -80.07966 2209 ft 142 kts 331°
2026-04-21 07:31 8.22151 -80.08388 2229 ft 141 kts 341°
2026-04-21 07:31 8.23078 -80.08705 2230 ft 140 kts 344°
2026-04-21 07:31 8.24017 -80.08992 2257 ft 140 kts 345°
2026-04-21 07:32 8.24963 -80.09267 2279 ft 140 kts 345°
2026-04-21 07:32 8.25905 -80.09536 2232 ft 140 kts 345°
2026-04-21 07:32 8.26853 -80.09804 2061 ft 140 kts 345°
2026-04-21 07:32 8.27785 -80.10068 1881 ft 139 kts 345°
2026-04-21 07:33 8.28729 -80.10335 1699 ft 139 kts 345°
2026-04-21 07:33 8.29656 -80.10599 1520 ft 139 kts 345°
2026-04-21 07:33 8.30599 -80.10866 1342 ft 139 kts 345°
2026-04-21 07:33 8.31535 -80.11131 1163 ft 140 kts 345°
2026-04-21 07:34 8.32477 -80.11400 979 ft 139 kts 344°
2026-04-21 07:34 8.33400 -80.11710 818 ft 139 kts 344°
2026-04-21 07:34 8.34330 -80.11993 647 ft 139 kts 347°
2026-04-21 07:34 8.35240 -80.12217 453 ft 128 kts 347°
2026-04-21 07:35 8.36168 -80.12453 345 ft 138 kts 348°
2026-04-21 07:35 8.37082 -80.12708 134 ft 142 kts 347°
2026-04-21 07:35 8.37956 -80.12944 111 ft 87 kts 346°
2026-04-21 07:35 8.38273 -80.13036 123 ft 38 kts 345°
2026-04-21 07:36 8.38509 -80.13105 128 ft 33 kts 345°
2026-04-21 07:36 8.38598 -80.13130 129 ft 0 kts 344°
2026-04-21 07:36 8.38609 -80.13133 129 ft 2 kts 346°
2026-04-21 07:36 8.38629 -80.13133 129 ft 4 kts 12°
2026-04-21 07:37 8.38661 -80.13105 129 ft 6 kts 64°
2026-04-21 07:37 8.38666 -80.13090 129 ft 0 kts 73°
2026-04-21 07:37 8.38684 -80.13029 130 ft 11 kts 74°
2026-04-21 07:37 8.38680 -80.12969 130 ft 8 kts 95°
2026-04-21 07:38 8.38688 -80.12926 130 ft 0 kts 77°
2026-04-21 07:38 8.38689 -80.12922 130 ft 1 kts 75°
2026-04-21 07:38 8.38689 -80.12920 130 ft 0 kts 75°